Showing default

SJ-17, 41838

Orbit data source: Space-Track

SJ-17, 41838 is a Chinese payload satellite in GEO that was launched on Thu, 03 Nov 2016 UTC via a CHANG ZHENG 5/YZ-2 launch vehicle from the Wenchang Satellite Launch Center (WSC). Payload-class satellites include a variety of spacecraft equipped with specific instruments for various scientific and technological missions. These include communications satellites like Starlink; space stations such as the ISS; scientific satellites like the Hubble; Earth observation satellites from companies like Planet Labs, Umbra, and HawkEye 360; GPS; miniature CubeSats for education and research; and military/defense satellites.

Not visible in the next 10 days
Identifier
41838, 2016-065A
Orbit
GEO
Country
Flag of CNCN / PRC
Related business
Manufacturer
CAST
Mission
Operational Civil Technology
Bus & Motor
DFH-4?, Unknown motor
Mass
~3,000 kg wet, ~2,500 kg dry
Launch date (UTC)
2016-11-03 (9 years ago)
Launch vehicle
CHANG ZHENG 5/YZ-2
Launch site
Wenchang Satellite Launch Center (WSC)
Object type
Payload
Rocket body
Debris
Shape & HBR
Box + 2 Pan, 5.0 m
Radar Cross Section
14.304 m², Large (>1 m²)

Expand to show TLE details & history
Last TLE update: 2 days ago

TLE from 2 days ago
0 SJ-17
1 41838U 16065A   25349.82494456 -.00000266  00000-0  00000+0 0  9991
2 41838   5.2867  74.8244 0000886 149.0399 305.3462  0.99870796 33374
Epoch: 2025-12-15T19:47Z
TLE epoch observation values (Epoch: 2025-12-15T19:47:55.209Z)
Latitude
5.27585°
Longitude
147.51993°
Altitude
35,896.216 km
Speed
3.071 km/s
True Right ascension
11h 16m 52s
True Declination
5° 16' 14"
Sunlit
Object was in daylight at epoch
Visualization orbit readout
Latitude
Unknown
Longitude
Unknown
Altitude
Unknown
Speed
Unknown
Apparent Right ascension
Unknown
Apparent Declination
Unknown
Sunlit
N/A
Visualization observer readout
Local Sidereal Time
02:12:04
Azimuth
Unknown
Elevation
Unknown
Doppler factor
Unknown
Orbital elements
Apogee altitude
35,904.183 km
Perigee altitude
35,896.691 km
Semi-major axis
42,278.574 km
Eccentricity
0.00009
Inclination
5.2867°
RAAN
74.8244°
Arg. of periapsis
149.0399°
True anomaly
305.33792°
Mean anomaly
305.3462°
Eccentric anomaly
305.34206°
Mean motion
0.24967 °/min
Orbital period
1,441.92 mins
BSTAR
0
Loading maneuver chart data...
Computing Atmospheric mass density...
Loading historical data...
Loading historical data...
Loading historical data...
Loading historical data...
Loading historical data...
Loading historical data...
Loading historical data...
Other satellites on launch #65 in the year 2016 (2016-11-03 UTC)

Documentation

Showing up to 5 results
|